Location: Albany
(42.6526°N, 73.7562°W)
Time: 06:40:36
(UTC+00:00)

YAOGAN 6 - Pass Details

Date: 19 November 2019
Orbit: 466 x 505 km, 97.0° (Epoch: 05 December)

Event Time Altitude Azimuth Distance (km) Brightness Sun altitude
Rises 22:58:51 0° 163° (SSE) 2,496 6.1 -16.4°
Reaches altitude 10° 23:00:53 10° 161° (SSE) 1,622 5.1 -16.8°
Maximum altitude 23:04:21 72° 77° (ENE) 495 2.3 -17.4°
Drops below altitude 10° 23:07:50 10° 352° (N) 1,631 5.2 -18.0°
Sets 23:09:54 0° 351° (N) 2,514 6.2 -18.4°
